Pocatello, ID

7:57 AM MST on January 21, 2018 (GMT -0700)
Pocatello Regional

Weather History for KPIH - August, 2013

Change the Weather History Date:

Saturday, August 17, 2013

  Actual Average Record
Temperature  
Mean Temperature 75 °F 69 °F  
Max Temperature 97 °F 87 °F 97 °F (2001)
Min Temperature 53 °F 51 °F 38 °F (2009)
Degree Days  
Heating Degree Days 0 1  
Month to date heating degree days 0 4  
Since 1 June heating degree days 90 155  
Since 1 July heating degree days 0 24  
Cooling Degree Days 10 5  
Month to date cooling degree days 121 97  
Year to date cooling degree days 515 320  
Since 1 June cooling degree days 506 315  
Growing Degree Days 25 (Base 50)    
Moisture  
Dew Point 31 °F    
Average Humidity 25    
Maximum Humidity 43    
Minimum Humidity 7    
Precipitation  
Precipitation 0.00 in 0.01 in 0.96 in (1968)
Month to date precipitation 0.01 0.31  
Year to date precipitation 3.83 7.77  
Snow  
Snow 0.00 in - - ()
Month to date snowfall 0.0  
Since 1 June snowfall 0.0  
Since 1 July snowfall 0.0  
Snow Depth 0.00 in    
Sea Level Pressure  
Sea Level Pressure 29.91 in    
Wind  
Wind Speed 4 mph (West)    
Max Wind Speed 13 mph    
Max Gust Speed 17 mph    
Visibility 10 miles    
Events      
T = Trace of Precipitation, MM = Missing Value Source: NWS Daily Summary

Daily Weather History Graph

Daily Weather History Graph

Search for Another Location

Airport or City:

Trip Planner

Search our weather history database for the weather conditions in past years. The results will help you decide how hot, cold, wet, or windy it might be!

Date:

Astronomy

Aug. 17, 2013 Rise Set
Actual Time 6:38 AM MDT 8:28 PM MDT
Civil Twilight 6:08 AM MDT 8:59 PM MDT
Nautical Twilight 5:31 AM MDT 9:36 PM MDT
Astronomical Twilight 4:51 AM MDT 10:16 PM MDT
Moon 5:50 PM MDT (8/17) 2:43 AM MDT (8/17)
Length of Visible Light 14h 50m
Length of Day
13h 49m
Waxing Gibbous, 85% of the Moon is Illuminated
Aug 17
Waxing Gibbous
Aug 20
Full
Aug 28
Last Quarter
Sep 5
New
Sep 12
First Quarter

Hourly Weather History & Observations

Time (MDT) Temp. Dew Point Humidity Pressure Visibility Wind Dir Wind Speed Gust Speed Precip Events Conditions
12:53 AM 63.0 °F 28.9 °F 28% 29.91 in 10.0 mi SSE 10.4 mph - N/A   Clear
1:53 AM 63.0 °F 32.0 °F 31% 29.91 in 10.0 mi Calm Calm - N/A   Clear
2:53 AM 61.0 °F 32.0 °F 34% 29.91 in 10.0 mi ESE 3.5 mph - N/A   Clear
3:53 AM 61.0 °F 35.1 °F 38% 29.91 in 10.0 mi Calm Calm - N/A   Clear
4:53 AM 57.0 °F 35.1 °F 44% 29.92 in 10.0 mi ENE 3.5 mph - N/A   Clear
5:53 AM 55.9 °F 33.1 °F 42% 29.94 in 10.0 mi Calm Calm - N/A   Clear
6:53 AM 59.0 °F 33.1 °F 38% 29.95 in 10.0 mi SW 3.5 mph - N/A   Scattered Clouds
7:53 AM 60.1 °F 34.0 °F 38% 29.98 in 10.0 mi Calm Calm - N/A   Clear
8:53 AM 72.0 °F 33.1 °F 24% 29.98 in 10.0 mi SW 5.8 mph - N/A   Clear
9:53 AM 79.0 °F 30.9 °F 17% 29.97 in 10.0 mi WSW 5.8 mph - N/A   Clear
10:53 AM 77.0 °F 43.0 °F 30% 29.99 in 10.0 mi West 5.8 mph - N/A   Clear
11:53 AM 84.9 °F 33.1 °F 16% 29.99 in 10.0 mi West 10.4 mph - N/A   Clear
12:53 PM 88.0 °F 28.0 °F 12% 29.95 in 8.0 mi WSW 10.4 mph - N/A   Smoke
1:53 PM 90.0 °F 28.9 °F 11% 29.93 in 10.0 mi West 4.6 mph - N/A   Clear
2:53 PM 93.9 °F 25.0 °F 8% 29.90 in 10.0 mi NW 10.4 mph - N/A   Partly Cloudy
3:53 PM 95.0 °F 21.9 °F 7% 29.88 in 10.0 mi West 8.1 mph - N/A   Clear
4:53 PM 96.1 °F 25.0 °F 8% 29.86 in 10.0 mi NW 10.4 mph - N/A   Clear
5:53 PM 95.0 °F 25.0 °F 8% 29.86 in 10.0 mi West 6.9 mph - N/A   Clear
6:53 PM 93.0 °F 28.0 °F 10% 29.85 in 10.0 mi NW 5.8 mph - N/A   Clear
7:53 PM 87.1 °F 41.0 °F 20% 29.86 in 10.0 mi WNW 4.6 mph - N/A   Clear
8:53 PM 75.9 °F 35.1 °F 23% 29.86 in 10.0 mi Calm Calm - N/A   Clear
9:53 PM 75.0 °F 36.0 °F 24% 29.87 in 10.0 mi Calm Calm - N/A   Clear
10:53 PM 75.9 °F 28.0 °F 17% 29.88 in 10.0 mi Calm Calm - N/A   Clear
11:53 PM 77.0 °F 27.0 °F 16% 29.87 in 10.0 mi Calm Calm - N/A   Clear